Regional Weather Roundup
Issued by NWS

Home | Current Version | Previous Version | Text Only | Print | Product List | Glossary Off
Versions: 1 2 3 4 5 6 7 8 9 10 11 12 13 14 15 16 17 18 19 20 21 22 23 24 25 26 27 28 29 30 31 32 33 34 35 36 37 38 39 40 41 42 43 44 45 46 47 48 49 50

930
ASUS43 KBIS 082302
RWRND

NORTH DAKOTA REGIONAL WEATHER ROUNDUP
NATIONAL WEATHER SERVICE BISMARCK ND
500 PM CST MON FEB 08 2016

NOTE: "FAIR" INDICATES FEW OR NO CLOUDS BELOW 12,000 FEET WITH NO
SIGNIFICANT WEATHER AND/OR OBSTRUCTIONS TO VISIBILITY.


NDZ001>003-009>011-017-090000-
NORTHWEST NORTH DAKOTA

CITY           SKY/WX    TMP DP  RH WIND       PRES   REMARKS
WILLISTON      CLOUDY    35  19  52 NW9       30.30R
MINOT          CLEAR     29  11  47 NW17      30.25R WCI  17
MINOT AFB      CLEAR     28  13  54 NW14      30.25R WCI  17
$$

NDZ018>021-031>035-040>046-090000-
SOUTHWEST NORTH DAKOTA

CITY           SKY/WX    TMP DP  RH WIND       PRES   REMARKS
BISMARCK       CLOUDY    36  18  48 N23G29    30.24R
DICKINSON      CLOUDY    33  11  39 NW18      30.23S
GARRISON         N/A     30  17  58 NW23G31   30.24R WCI  17
HETTINGER ARPT CLOUDY    35   9  33 NW17      30.25S
$$

NDZ004>008-012>016-024-026-027-054-090000-
NORTHEAST NORTH DAKOTA

CITY           SKY/WX    TMP DP  RH WIND       PRES   REMARKS
GRAND FORKS    LGT SNOW  12   5  73 N30G40    30.23R BLWGSNOWWCI -10
GRND FRKS AFB  CLOUDY    12   5  76 N18G28    30.22S WCI  -6
DEVILS LAKE    CLEAR     17  11  77 N14       30.22R WCI   3
$$

NDZ022-023-025-028>030-036>039-047>053-090000-
SOUTHEAST NORTH DAKOTA

CITY           SKY/WX    TMP DP  RH WIND       PRES   REMARKS
FARGO          LGT SNOW  14   7  73 N21       30.20F WCI  -4
JAMESTOWN      CLEAR     24  11  57 N25       30.17R WCI   8
$$





USA.gov is the U.S. government's official web portal to all federal, state and local government web resources and services.